{"data":{"norad_id":55485,"epoch":"2026-05-24T17:47:18.402144Z","epoch_age_seconds":100868,"freshness":"FRESH","line1":"1 55485U 23015AN  26144.74118521  .00000271  00000+0  19390-4 0  9999","line2":"2 55485  43.0050 270.4664 0002071 274.2079  85.8536 15.27576897182228","mean_motion":15.27576897,"eccentricity":0.0002071,"inclination_deg":43.005,"raan_deg":270.4664,"arg_perigee_deg":274.2079,"mean_anomaly_deg":85.8536,"bstar":1.939e-5,"rev_number":18222,"period_min":94.266940199738,"perigee_km":481.63743398892,"apogee_km":484.47934111844,"semimajor_km":6861.1953875537,"source":"CELESTRAK","updated_at":"2026-05-25T13:38:17.809799Z"}}